Content
SEND FEEDBACK

Daily
Averages
Monthly
Summary
United States of America

FOSTER CITY, CALIFORNIA


Home > North America > United States > California
Elevation: 30 feet     Latitude: 37 34N     Longitude: 122 19W

WEATHER
 
SELECT A DAY
Number of Records: 184,759;   Date Range: 1/1/95 - 7/22/14
 
SHARE

PRINT THIS DATA

[ ← Previous Day ]
WEATHER ALMANAC - JANUARY 31, 2013
[ Next Day → ]
[ °C ]   °F
Weather ElementAverageHighLow
Temperature50.9 °F62.1 °F (3:56 pm)42.8 °F (5:11 am)
Dewpoint42.6 °F46 °F (12:56 pm)37.9 °F (3:56 am)
Humidity74.2 %87 % (5:11 am)50 % (3:56 pm)
Barometer30.24 in30.30 in (9:56 am)30.19 in (4:56 pm)
Wind Speed2.4 mph8.1 mph (5:56 pm)
Weather ElementAverage
Visibility9.7 mi
Wind DirectionE (88.8 °)

Weather ElementTotal
Precipitation---
Heating Degree Days12.6 (Base 65)
Growing Degree Days2.5 (Base 50)
Averaged from 24 records on January 31, 2013
WEATHER CONDITIONS BREAKOUT
WIND DIRECTION BREAKOUT
WEATHER BY HOUR - JANUARY 31, 2013
[ °C ]   °F
Local TimeTemperatureDewpointHumidityBarometerVisibilityWind DirectionWind SpeedGust SpeedPrecipitationEventsConditions
1:56 AM46.9 °F39.9 °F77 %30.28 in10.0 miCalmClear
2:56 AM48.0 °F42.1 °F80 %30.27 in10.0 miCalmClear
3:56 AM44.1 °F37.9 °F79 %30.27 in10.0 miCalmClear
4:56 AM44.1 °F39.9 °F85 %30.27 in10.0 miCalmClear
5:11 AM42.8 °F39.2 °F87 %30.27 in10.0 miCalmPartly Cloudy
5:56 AM43.0 °F39.0 °F86 %30.27 in10.0 miCalmPartly Cloudy
6:56 AM46.9 °F42.1 °F83 %30.28 in10.0 miCalmPartly Cloudy
7:56 AM46.9 °F43.0 °F86 %30.29 in10.0 miCalmPartly Cloudy
8:56 AM51.1 °F45.0 °F80 %30.29 in10.0 miCalmPartly Cloudy
9:56 AM52.0 °F45.0 °F77 %30.30 in9.0 miNNE (20°)5.8 mphClear
10:56 AM52.0 °F45.0 °F77 %30.29 in9.0 miCalmClear
11:56 AM53.1 °F44.1 °F71 %30.27 in9.0 miNE (50°)3.5 mphClear
12:56 PM54.0 °F46.0 °F75 %30.25 in9.0 miNorth (10°)5.8 mphClear
1:56 PM55.9 °F45.0 °F67 %30.22 in9.0 miNorth (360°)5.8 mphHaze
2:56 PM57.9 °F46.0 °F65 %30.20 in9.0 miNorth (360°)4.6 mphClear
3:56 PM62.1 °F43.0 °F50 %30.20 in9.0 miCalmClear
4:56 PM57.9 °F45.0 °F62 %30.19 in9.0 miNW (310°)4.6 mphPartly Cloudy
5:56 PM55.9 °F42.1 °F60 %30.19 in10.0 miWest (280°)8.1 mphPartly Cloudy
6:56 PM54.0 °F41.0 °F62 %30.19 in10.0 miWest (280°)8.1 mphClear
7:56 PM53.1 °F42.1 °F66 %30.19 in10.0 miWest (280°)6.9 mphClear
8:56 PM52.0 °F42.1 °F69 %30.19 in10.0 miCalmClear
9:56 PM50.0 °F43.0 °F77 %30.19 in10.0 miSouth (180°)4.6 mphClear
10:56 PM48.9 °F43.0 °F80 %30.19 in10.0 miCalmClear
11:56 PM48.9 °F43.0 °F80 %30.19 in10.0 miCalmClear
Hourly data recorded from KSFO, located miles away from Foster City, California







STORIES FROM OUR PARTNERS